Location: Clyde
(45.1830°S, 169.3170°E)
Time: 09:56:46
(UTC+12:00)

CZ-2C R/B - Pass Details

Date: 14 May 2021
Orbit: 705 x 907 km, 98.0° (Epoch: 15 June)

Event Time Altitude Azimuth Distance (km) Brightness Sun altitude
Exits shadow 18:59:04 21° 138° (SE) 1,593 4.2 -16.6°
Maximum altitude 19:01:43 37° 83° (E) 1,107 3.3 -17.1°
Drops below altitude 10° 19:06:08 10° 15° (NNE) 2,184 5.3 -17.8°
Sets 19:08:31 0° 7° (N) 3,101 6.2 -18.2°
